RADUGA 26 [-]

Last updated on Aug. 14, 2020, 5:30 a.m. UTC

1 21016U 90112A   20225.91894911 -.00000083  00000-0  00000-0 0  9998
2 21016  14.6283 354.6484 0007697  51.7387 317.7213  1.00321828108862
UTC
Height (km)
Latitude
Longitude
Inclination
Orbital Period
UTC large
Height (km)
Speed (km/s)
/
Latitude / Longitude
Inclination (degrees)
Orbital Period (minutes)
Azimuth
Elevation
Range (km)
Doppler Factor
iOS Compass Heading
iOS Angle

Next 30 passes for location: Hong Kong

Rise time Rise Azimuth (degrees) Set time Set Azimuth (degrees) Duration Max altitude (degrees)

No matching passes for this satellites